Погода в Дзарджане

Погода в Дзарджане : погода сейчас, прогноз погоды и архив. Всё, что Вы хотите узнать о погоде в Дзарджане!

Поиск расширенной информации на нашем сайте:

Другие новости

Новости СМИ2

Главная страница сайта

Новости сайта

02.10.2013

Напоминаем, что на нашем новом сайте вы можете получить высокодетализированные прогнозы погоды по пунктам России, СНГ и мира (включающие важные для авиации метеовеличины, такие как направление и скорость ветра, видимость, явления погоды, количество и форма облачности, нижняя и верхняя граница облачности), а также ознакомиться с разнообразными материалами по авиационной метеорологии и подборкой полезных ссылок на эту тему.

Сайт Метеоцентр.Азия посвящён разработке технологий оптимизации авиаметеорологического обслуживания, включая проектирование и перспективное создание нескольких автоматизированных авиаметеорологических систем:
- система выпуска высокодетальных прогностических карт явлений погоды для нижнего воздушного пространства по России и ближнему зарубежью;
- система верификации прогнозов TAF (выпускаемых синоптиками официальных АМСГ РФ и ближнего зарубежья) и AUTOTAF (выпускаемых сайтом Метеоцентр.Азия) - выявление ошибок, онлайн-сопоставление с фактической погодой METAR, автоматическое внесение коррективов в прогнозы при резком отклонении фактической погоды от прогноза, подсчёт оправдываемости прогнозов по элементам и в целом;
- система обработки, анализа и отображения авиаметеорологической информации для применения провайдерами метеорологической информации.


Погода в Дзарджане - сегодня

Время (UTC), дата Ветер
(°,м/с) 
Видим.   Явления Облачность Т
(°С)
Тd
(°С)
f(%) Тe
(°С)
Pmin
(гПа)
dP
(гПа)
Po
(мм)
O2
(г/м3)
Тmin Tmax R s Состояние
почвы
03 21.02.17 тихо ()   20000 м    ясно 
-38.5 -42.7 64 -39  1023.8  0.6  764  360           
06 21.02.17 360 (С) 20000 м    ясно 
-34 -37.5 71 -35  1023.7  764  353           
09 21.02.17 тихо ()   20000 м    ясно 
-36.9 -40.4 70 -37  1023.9  0.2  764  358           
12 21.02.17 тихо ()   20000 м    ясно 
-38.1 -41.6 70 -38  1023.9  -0.1  764  360    -34       
15 21.02.17 тихо ()   20000 м    ясно 
-39.4 -42.9 69 -39  1023.9  764  362           
18 21.02.17 тихо ()   20000 м    ясно 
-40.5 -43.9 69 -41  1023.7  -0.2  763  363           
21 21.02.17 тихо ()   20000 м    ясно 
-41 -44.4 70 -41  1023.6  -0.1  763  364           
00 22.02.17 тихо ()   20000 м    3/0 средняя 
[As op]
-42.7 -46.9 63 -43  1023.1  -0.6  763  367    -42.7    29  неравномерный
сухой снег
100% 
03 22.02.17 тихо ()   20000 м    ясно 
-38.5 -42.7 64 -39  1022.8  -0.2  763  360           
06 22.02.17 тихо ()   20000 м    3/0 верхняя 
[Ci fib]
-34.6 -38.8 66 -35  1022.6  -0.1  763  354           
09 22.02.17 тихо ()   20000 м    ясно 
-35.9 -40.1 65 -36  1022.5  -0.1  763  356           
12 22.02.17 тихо ()   20000 м    ясно 
-38.5 -42 69 -39  1022.2  -0.4  762  360    -34.6       
15 22.02.17 тихо ()   20000 м    ясно 
-40.9 -45.1 64 -41  1021.5  -0.7  762  363           
18 22.02.17 тихо ()   20000 м    ясно 
-42.1 -46.3 63 -42  1021.4  -0.1  762  365           
21 22.02.17 тихо ()   20000 м    ясно 
-43.6 -46.9 70 -44  1021.5  762  367           
00 23.02.17 тихо ()   20000 м    4/0 верхняя 
[Ci fib]
-44.4 -47.6 70 -44  1021.7  0.2  762  369  -44.4      29  неравномерный
сухой снег
100% 
03 23.02.17 тихо ()   20000 м    3/0 верхняя 
[Ci fib]
-38.9 -43.2 64 -39  1020.9  -0.6  761  360           
06 23.02.17 тихо ()   20000 м    3/0 верхняя 
[Ci fib]
-34.7 -39.1 64 -35  1020.9  761  354           
09 23.02.17 тихо ()   20000 м    6/0 верхняя 
[Ci fib]
-37 -41.1 66 -37  1021  0.1  761  357           
12 23.02.17 тихо ()   20000 м    4/0 верхняя 
[Ci fib]
-35.9 -39.4 70 -36  1021.1  0.1  762  355    -34.7       
15 23.02.17 тихо ()   20000 м    3/0 верхняя 
[Ci fib]
-40 -43.4 70 -40  1021.3  0.1  762  362           
18 23.02.17 тихо ()   20000 м    8/0 верхняя 
[Ci fib]
-41.1 -44.4 70 -41  1021.4  0.1  762  363           
21 23.02.17 тихо ()   20000 м    ясно 
-42.3 -46.3 64 -42  1020.8  -0.6  761  365           
00 24.02.17 тихо ()   20000 м    10/0 средняя, верхняя 
[As op|Ci fib]
-41.8 -45.7 66 -42  1020.5  -0.3  761  364  -42.9      29  неравномерный
сухой снег
100% 
03 24.02.17 тихо ()   20000 м    ясно 
-36.6 -40.8 65 -37  1020.2  -0.1  761  356           
Время (UTC), дата Ветер
(°,м/с) 
Видим.   Явления Облачность Т
(°С)
Тd
(°С)
f(%) Тe
(°С)
Pmin
(гПа)
dP
(гПа)
Po
(мм)
O2
(г/м3)
Тmin Tmax R s Состояние
почвы

Для получения пояснительной информации подведите курсор к названию столбца.

ПОГОДА в Дзарджане - архив

Всё, что Вы хотите узнать о погоде в Дзарджане - удобно и подробно!

Выберите нужную дату (начиная с 1 января 2015* года) и нажмите кнопку "Найти".
Будут отображены архивные сводки погоды по пункту Дзарджан, начиная с указанной даты.


Отображать данные в формате CSV (для использования в таблицах Excel)


Внимание! Наш архив погоды предназначен исключительно для личного некоммерческого использования в познавательных целях. Если Вам необходимы официальные справки о состоянии погоды (для производственных, юридических, коммерческих и т.п. целей), обращайтесь в органы Росгидромета.

*Примечание: данная дата относится к архиву по метеостанциям СССР (Россия, СНГ, Балтия).
Архив по метеостанциям Зарубежной Европы и Азии (кроме Китая) хранится 10 дней, по другим регионам земного шара (Китай, Африка, Америка, Австралия, Океания) - 1 день.

Дзарджан - район местоположения метеостанции


Название, широта, долгота, высота метеостанции:
Дзарджан 68.7°ш. 124°д. 39 м над ур. моря [Российская Федерация]

Дополнительная информация

В oтличие oт бoльшинства пoгoдных сайтoв мы публикуем пoдрoбную метеoинфoрмацию в детальнoм прoфессиoнальнoм фoрмате.

Характеристики температуры и влажнoсти вoздуха измеряются на высoте 2 м в тени вдали oт зданий и деревьев.
Скoрoсть ветра измеряется на высoте 10 м (на урoвне рoста челoвека скoрoсть ветра ниже в 1.5-2 раза). Если метеoстанция нахoдится в гoрoде или в лесу, тo скoрoсть ветра занижена на 2-4 м/с пo сравнению с oткрытым местoм. Скoрoсть ветра над акватoриями крупных рек и oзёр, а также на вершинах хoлмoв на 2-5 м/с выше, чем в oбычных услoвиях.
Атмoсфернoе давление в разных тoчках местнoсти мoжет значительнo oтличаться oт давления на метеoстанции, в зависимoсти oт услoвий рельефа (при пoдъёме на 10 м давление пoнижается примернo на 1 мм рт.ст.).